Location: Mercogliano
(40.9167°N, 14.7333°E)
Time: 07:18:35
(UTC+00:00)

CZ-2C R/B - Pass Details

Date: 19 January 2021
Orbit: 785 x 870 km, 98.2° (Epoch: 08 March)

Event Time Altitude Azimuth Distance (km) Brightness Sun altitude
Rises 05:40:19 0° 174° (S) 3,263 6.1 -8.0°
Reaches altitude 10° 05:42:38 10° 178° (S) 2,344 5.3 -7.6°
Maximum altitude 05:47:46 63° 259° (W) 888 2.6 -6.7°
Drops below altitude 10° 05:53:00 10° 341° (NNW) 2,398 4.7 -5.8°
Sets 05:55:25 0° 344° (NNW) 3,346 5.4 -5.3°
